[[{"header":{"parameterUnit":"m.s-1","parameterCategory":1,"la1":30.2991,"la2":30.254,"lo1":-89.0895,"lo2":-89.0444,"dy":0.0017,"dx":0.0017,"nx":28,"ny":28,"refTime":"2024-10-10T03:00:00:Z","depth":0,"parameterNumber":2,"parameterNumberName":"U-component_of_WINDS"},"data":[0,0,0,0,0,0,0,0,0,0,0,0,0,0,0,0,0,0,0,0,0,0,0,0,0,0,0,0,0,0,0,0,0,0,0,0,0,0,0,0,0,0,0,0,0,0,0,0,0,0,0,0,0,0,0,0,0,0,0.5656,0.5655,0,0.5633,0.5633,0.5633,0.5623,0.5623,0.5623,0.5623,0.5599,0.5598,0.5598,0,0,0,0,0,0,0,0,0,0,0,0,0,0.5688,0.5688,0.5656,0.5655,0.5655,0.5634,0.5633,0.5633,0.5623,0.5623,0.5623,0.5623,0.5599,0.5598,0.5598,0,0,0,0,0,0,0,0,0,0,0,0,0,0.5671,0.5688,0.5656,0.5647,0.5646,0.5634,0.5633,0.5633,0.5623,0.5623,0.5623,0.5623,0.5599,0.5598,0.5598,0.5591,0,0,0.5595,0.5594,0,0,0,0,0,0,0,0,0.5672,0.567,0.5649,0.5648,0.5647,0.5631,0.5636,0.5619,0.5623,0.5632,0.5623,0.5623,0.5609,0.5608,0.5603,0.559,0.5589,0.5594,0.5594,0.5593,0.5593,0,0,0,0,0,0,0,0.5673,0.5671,0.5647,0.5649,0.5647,0.5645,0.5642,0.5633,0.5621,0.5631,0.563,0.5628,0.5609,0.5604,0.5603,0.5588,0.5594,0.5594,0.5593,0.5593,0.5569,0.5569,0,0,0,0,0,0,0.5676,0.5672,0.5647,0.5646,0.566,0.5644,0.5641,0.5636,0.5621,0.5618,0.5628,0.5627,0.5606,0.5604,0.5602,0.5593,0.5593,0.5593,0.5592,0.5569,0.5569,0.5569,0,0,0,0,0,0,0.5677,0.5674,0.5648,0.5659,0.5655,0.5643,0.5638,0.5635,0.5631,0.5618,0.5616,0.5625,0.5606,0.5603,0.5594,0.5592,0.5592,0.5591,0.5569,0.5569,0.5569,0.5576,0,0,0,0,0,0,0.5678,0.5674,0.5671,0.5659,0.5655,0.5641,0.5637,0.5635,0.5629,0.5629,0.5615,0.5613,0.5606,0.5595,0.5593,0.5591,0.559,0.5569,0.5569,0.5569,0.5576,0.5576,0.5577,0,0,0,0,0,0.5679,0.5674,0.5671,0.5669,0.5651,0.5641,0.5639,0.563,0.5629,0.5627,0.5619,0.5614,0.5593,0.5595,0.5592,0.5589,0.5569,0.5569,0.5569,0.5576,0.5576,0.5577,0,0,0,0,0,0,0.5686,0.5672,0.5669,0.566,0.5652,0.5639,0.5635,0.5631,0.5622,0.5622,0.5612,0.5609,0.5601,0.5594,0.5596,0.5583,0.5581,0.558,0.5587,0.5587,0.5588,0.5589,0.559,0,0,0,0,0,0.5687,0.568,0.5668,0.5661,0.5657,0.5647,0.5642,0.5637,0.5628,0.5624,0.5615,0.5606,0.5598,0.5592,0.5584,0.5575,0.5572,0.5572,0.5573,0.5573,0.5572,0.5568,0.5568,0.5568,0.5568,0.5568,0,0,0.5688,0.568,0.5676,0.5663,0.5656,0.5648,0.5644,0.5636,0.5631,0.5623,0.5613,0.5607,0.5596,0.5587,0.5583,0.5582,0.5572,0.5573,0.5573,0.5572,0.5568,0.5568,0.5568,0.5568,0.5568,0.5568,0,0,0.5687,0.568,0.5674,0.5667,0.5656,0.565,0.5648,0.5636,0.5632,0.5623,0.5616,0.561,0.5595,0.5588,0.5582,0.5579,0.5574,0.5577,0.5578,0.5574,0.5574,0.5574,0.5573,0.5573,0.5576,0.5576,0.5576,0,0.5689,0.5678,0.5671,0.5664,0.5658,0.5651,0.5645,0.5638,0.5625,0.5622,0.5621,0.5603,0.5595,0.5585,0.5584,0.558,0.5578,0.5578,0.5575,0.5575,0.5574,0.5573,0.5573,0.5577,0.5577,0.5577,0.5577,0,0.5682,0.5675,0.5671,0.566,0.5654,0.5647,0.5638,0.5633,0.5629,0.5622,0.5613,0.5604,0.5594,0.5591,0.5586,0.558,0.5579,0.5577,0.5574,0.5575,0.5573,0.5573,0.5577,0.5577,0.5577,0.5577,0,0,0.5684,0.5669,0.5668,0.5663,0.5651,0.5645,0.5638,0.5629,0.5625,0.5616,0.561,0.5599,0.5597,0.559,0.5585,0.5581,0.5579,0.5579,0.5578,0.5579,0.5572,0.5574,0.5574,0.5577,0.5576,0.5576,0.5573,0,0.5681,0.5668,0.5662,0.5652,0.5645,0.5639,0.5633,0.5625,0.5619,0.5613,0.5606,0.5598,0.5596,0.5592,0.5588,0.558,0.5578,0.5581,0.5571,0.557,0.5573,0.5573,0.5575,0.5572,0.5573,0.5573,0.5573,0,0.5675,0.5667,0.5657,0.5647,0.5644,0.5639,0.563,0.5624,0.5615,0.5611,0.5605,0.5599,0.5592,0.5591,0.5581,0.5583,0.5578,0.5574,0.5574,0.5572,0.5571,0.5571,0.5571,0.5571,0.5572,0.5572,0.5572,0,0.5677,0.5664,0.5657,0.5653,0.5641,0.5637,0.5632,0.5623,0.5618,0.5611,0.5607,0.5599,0.5594,0.5587,0.558,0.558,0.557,0.5569,0.5567,0.5567,0.5564,0.5564,0.5563,0.5562,0.5562,0.5562,0.5562,0,0.5674,0.5668,0.5658,0.5653,0.5646,0.5639,0.5632,0.5627,0.5619,0.5613,0.5607,0.5602,0.5592,0.5586,0.558,0.5573,0.557,0.5567,0.5565,0.5567,0.5568,0.5564,0.5564,0.5562,0.5562,0.5562,0.5562,0,0.5675,0.5668,0.5659,0.5649,0.5646,0.5642,0.5633,0.5628,0.5622,0.5615,0.5612,0.5603,0.5595,0.5588,0.5577,0.5573,0.5565,0.5563,0.5568,0.5567,0.5566,0.5566,0.5562,0.5561,0.5561,0.5561,0.5561,0,0.5673,0.5668,0.5658,0.5653,0.5649,0.5642,0.5637,0.563,0.5625,0.5615,0.5611,0.5603,0.5596,0.5584,0.5576,0.5568,0.5565,0.5565,0.5564,0.5566,0.5565,0.5565,0.5565,0.5565,0.5565,0.5565,0.5565,0,0.567,0.5667,0.566,0.5653,0.5647,0.564,0.5634,0.563,0.5622,0.5617,0.5609,0.5603,0.5593,0.5585,0.5576,0.557,0.5566,0.5565,0.5564,0.5566,0.5569,0.5567,0.5569,0.5565,0.5565,0.5565,0.5565,0.5565,0.5669,0.5665,0.5657,0.565,0.5644,0.5638,0.5634,0.5628,0.5621,0.5612,0.5608,0.56,0.5592,0.558,0.5575,0.5568,0.5567,0.5566,0.5565,0.5565,0.5566,0.557,0.5567,0.5567,0.5567,0.5567,0.5567,0,0.5666,0.5661,0.5655,0.5646,0.564,0.5637,0.563,0.5625,0.5619,0.5612,0.5605,0.5596,0.5589,0.5581,0.5573,0.5569,0.5567,0.5567,0.5567,0.5566,0.5567,0.5569,0.5569,0.5569,0.5569,0.5569,0.5569,0.5569,0.5664,0.5657,0.5653,0.5643,0.5638,0.563,0.5626,0.5621,0.5615,0.5606,0.56,0.5595,0.5588,0.5579,0.5572,0.557,0.5567,0.5568,0.5565,0.5566,0.5566,0.5566,0.5567,0.5568,0.5568,0.5565,0.5565,0.5565]},{"header":{"parameterUnit":"m.s-1","parameterCategory":1,"la1":30.2991,"la2":30.254,"lo1":-89.0895,"lo2":-89.0444,"dy":0.0017,"dx":0.0017,"nx":28,"ny":28,"refTime":"2024-10-10T03:00:00:Z","depth":0,"parameterNumber":3,"parameterNumberName":"V-component_of_WINDS"},"data":[0,0,0,0,0,0,0,0,0,0,0,0,0,0,0,0,0,0,0,0,0,0,0,0,0,0,0,0,0,0,0,0,0,0,0,0,0,0,0,0,0,0,0,0,0,0,0,0,0,0,0,0,0,0,0,0,0,0,-5.5717,-5.5718,0,-5.5851,-5.5853,-5.5854,-5.5795,-5.5792,-5.5788,-5.5785,-5.5918,-5.5924,-5.5931,0,0,0,0,0,0,0,0,0,0,0,0,0,-5.5405,-5.5411,-5.5716,-5.5718,-5.572,-5.5851,-5.5853,-5.5854,-5.5796,-5.5792,-5.5788,-5.5784,-5.5916,-5.5923,-5.5931,0,0,0,0,0,0,0,0,0,0,0,0,0,-5.554,-5.5413,-5.5716,-5.5706,-5.5707,-5.585,-5.5853,-5.5855,-5.5796,-5.5792,-5.5787,-5.5782,-5.5913,-5.5923,-5.5932,-5.6092,0,0,-5.5963,-5.5967,0,0,0,0,0,0,0,0,-5.5532,-5.5551,-5.5706,-5.5707,-5.5708,-5.5801,-5.5791,-5.5934,-5.5798,-5.5762,-5.5785,-5.578,-5.5883,-5.5895,-5.5931,-5.6098,-5.6104,-5.5963,-5.5969,-5.5974,-5.5976,0,0,0,0,0,0,0,-5.5523,-5.5545,-5.577,-5.5708,-5.571,-5.5694,-5.5708,-5.5818,-5.5848,-5.5765,-5.5761,-5.5778,-5.5882,-5.5921,-5.5933,-5.6106,-5.5963,-5.5972,-5.5978,-5.5982,-5.6412,-5.6417,0,0,0,0,0,0,-5.5514,-5.5538,-5.5765,-5.5774,-5.5606,-5.5704,-5.5719,-5.5776,-5.5847,-5.5853,-5.5782,-5.5775,-5.5907,-5.5922,-5.5938,-5.613,-5.5974,-5.5983,-5.5989,-5.6406,-5.6413,-5.6419,0,0,0,0,0,0,-5.5508,-5.5535,-5.576,-5.5655,-5.5682,-5.5714,-5.5779,-5.5782,-5.5821,-5.586,-5.5865,-5.5817,-5.5904,-5.5924,-5.6055,-5.6134,-5.5987,-5.5996,-5.64,-5.6408,-5.6416,-5.6516,0,0,0,0,0,0,-5.5499,-5.5533,-5.5595,-5.5657,-5.5688,-5.5876,-5.5784,-5.5788,-5.5838,-5.583,-5.5894,-5.5899,-5.5901,-5.604,-5.6065,-5.6145,-5.6004,-5.6393,-5.6404,-5.6413,-5.6506,-5.6527,-5.6545,0,0,0,0,0,-5.5488,-5.5616,-5.5598,-5.5626,-5.5766,-5.5881,-5.5899,-5.59,-5.5845,-5.5907,-5.5933,-5.5897,-5.6121,-5.6054,-5.6081,-5.6166,-5.6388,-5.6401,-5.6413,-5.6497,-5.6523,-5.6544,0,0,0,0,0,0,-5.5561,-5.5624,-5.5605,-5.5757,-5.5815,-5.5871,-5.5949,-5.5926,-5.5999,-5.5988,-5.5984,-5.5999,-5.6135,-5.6163,-5.6087,-5.6324,-5.6246,-5.6264,-5.6301,-5.6326,-5.6345,-5.6335,-5.6012,0,0,0,0,0,-5.5595,-5.5684,-5.5734,-5.5863,-5.5893,-5.5917,-5.5966,-5.5963,-5.6021,-5.6044,-5.6079,-5.6136,-5.6219,-5.6273,-5.6352,-5.6509,-5.6523,-5.6581,-5.66,-5.6616,-5.6632,-5.6718,-5.6745,-5.646,-5.646,-5.6459,0,0,-5.5665,-5.5711,-5.5767,-5.5879,-5.5923,-5.6015,-5.5937,-5.6037,-5.6105,-5.6059,-5.6185,-5.6213,-5.6276,-5.6421,-5.6487,-5.6449,-5.6714,-5.6632,-5.6644,-5.6651,-5.6734,-5.6761,-5.6785,-5.6468,-5.6467,-5.6465,0,0,-5.5842,-5.5885,-5.5999,-5.6045,-5.6113,-5.6128,-5.6155,-5.6216,-5.6233,-5.6361,-5.6329,-5.6408,-5.6551,-5.6598,-5.664,-5.6836,-5.6807,-5.6861,-5.6963,-5.7047,-5.7069,-5.7089,-5.716,-5.7186,-5.6877,-5.6877,-5.6877,0,-5.592,-5.6059,-5.6059,-5.6163,-5.6213,-5.6178,-5.6293,-5.6336,-5.6426,-5.6461,-5.6418,-5.6598,-5.6637,-5.6794,-5.6842,-5.6877,-5.6908,-5.6854,-5.7066,-5.7086,-5.7105,-5.7173,-5.7199,-5.6883,-5.6883,-5.6882,-5.6881,0,-5.6153,-5.625,-5.6333,-5.6424,-5.6483,-5.6591,-5.6607,-5.6667,-5.6658,-5.6677,-5.6807,-5.6854,-5.6942,-5.6979,-5.697,-5.7135,-5.7109,-5.7066,-5.6988,-5.7139,-5.7202,-5.7228,-5.6892,-5.689,-5.6888,-5.6887,0,0,-5.6378,-5.6469,-5.65,-5.6541,-5.6614,-5.6688,-5.6795,-5.6883,-5.6935,-5.6998,-5.7088,-5.721,-5.7172,-5.722,-5.7216,-5.729,-5.7444,-5.7238,-5.724,-5.7276,-5.7629,-5.7662,-5.7692,-5.7424,-5.7429,-5.7433,-5.7624,0,-5.6561,-5.6751,-5.6754,-5.6928,-5.7017,-5.6985,-5.7078,-5.7133,-5.7154,-5.7231,-5.7253,-5.7341,-5.7283,-5.7312,-5.7384,-5.741,-5.7515,-5.7396,-5.7507,-5.7511,-5.7494,-5.7725,-5.7759,-5.7937,-5.7649,-5.7653,-5.7656,0,-5.6799,-5.6873,-5.7056,-5.7118,-5.7156,-5.724,-5.7322,-5.7397,-5.7458,-5.7467,-5.7523,-5.7508,-5.7616,-5.7534,-5.7683,-5.7602,-5.7648,-5.7667,-5.7674,-5.7685,-5.7593,-5.7743,-5.7994,-5.8021,-5.7695,-5.7692,-5.7689,0,-5.6947,-5.7091,-5.722,-5.7256,-5.7331,-5.7391,-5.7425,-5.7481,-5.7535,-5.7606,-5.764,-5.7722,-5.7767,-5.783,-5.7838,-5.7777,-5.7988,-5.7906,-5.7999,-5.7999,-5.8045,-5.8042,-5.8308,-5.8073,-5.8073,-5.8072,-5.8072,0,-5.7151,-5.7264,-5.7288,-5.7367,-5.7493,-5.7496,-5.762,-5.7649,-5.77,-5.7783,-5.7759,-5.7838,-5.7843,-5.7923,-5.7929,-5.8052,-5.8072,-5.8083,-5.8083,-5.8086,-5.8085,-5.8116,-5.8104,-5.8079,-5.8078,-5.8076,-5.8075,0,-5.7338,-5.7358,-5.7496,-5.7557,-5.7575,-5.7665,-5.7717,-5.7792,-5.7811,-5.7917,-5.7942,-5.7971,-5.8065,-5.8079,-5.8187,-5.8191,-5.8339,-5.8326,-5.832,-5.8318,-5.8411,-5.8402,-5.8707,-5.8747,-5.8485,-5.8487,-5.8489,0,-5.7467,-5.7554,-5.7625,-5.768,-5.7718,-5.7807,-5.7862,-5.7868,-5.7926,-5.8003,-5.8069,-5.8161,-5.8235,-5.8385,-5.8415,-5.8499,-5.8488,-5.8589,-5.85,-5.8501,-5.8491,-5.8487,-5.8496,-5.8606,-5.8609,-5.8612,-5.8613,0,-5.7695,-5.7701,-5.7783,-5.7869,-5.7936,-5.8003,-5.8066,-5.8112,-5.8126,-5.8192,-5.8289,-5.8347,-5.8459,-5.8551,-5.8634,-5.8666,-5.8643,-5.8641,-5.8667,-5.8671,-5.8665,-5.8671,-5.8368,-5.8634,-5.8632,-5.8631,-5.863,-5.8629,-5.7858,-5.7934,-5.7997,-5.8089,-5.8138,-5.8198,-5.8272,-5.8302,-5.8383,-5.8477,-5.8474,-5.8581,-5.864,-5.875,-5.8788,-5.8871,-5.8838,-5.8875,-5.8885,-5.8895,-5.8905,-5.8651,-5.8886,-5.8885,-5.8885,-5.8884,-5.8884,0,-5.8086,-5.8125,-5.8209,-5.83,-5.8373,-5.8346,-5.8415,-5.8477,-5.8571,-5.863,-5.8703,-5.8815,-5.8904,-5.8942,-5.9029,-5.9087,-5.9079,-5.911,-5.9106,-5.9115,-5.8928,-5.8898,-5.9116,-5.9116,-5.9116,-5.9116,-5.9116,-5.9116,-5.8213,-5.8342,-5.8355,-5.8508,-5.8546,-5.8652,-5.8694,-5.8749,-5.8796,-5.8922,-5.8997,-5.9022,-5.9072,-5.9162,-5.9243,-5.9251,-5.9285,-5.9321,-5.9325,-5.9151,-5.9127,-5.9105,-5.9076,-5.9328,-5.9329,-5.9505,-5.9506,-5.9508]}]]